King Salmon, AK

6:35 AM AKST on February 14, 2016 (GMT -0900)
Port Heiden

Weather History for PAPH - October, 2013

Change the Weather History Date:

Saturday, October 5, 2013

  Actual Average Record
Temperature  
Mean Temperature 43 °F -  
Max Temperature 51 °F 45 °F 57 °F (2002)
Min Temperature 35 °F 35 °F 21 °F (1996)
Degree Days  
Heating Degree Days 22    
Moisture  
Dew Point 34 °F    
Average Humidity 72    
Maximum Humidity 87    
Minimum Humidity 55    
Precipitation  
Precipitation 0.00 in - - ()
Sea Level Pressure  
Sea Level Pressure 29.71 in    
Wind  
Wind Speed 10 mph (SSW)    
Max Wind Speed 21 mph    
Max Gust Speed 26 mph    
Visibility 9 miles    
Events      
Averages and records for this station are not official NWS values.
T = Trace of Precipitation, MM = Missing Value Source: NWS Daily Summary

Daily Weather History Graph

Daily Weather History Graph

Search for Another Location

Airport or City:

Trip Planner

Search our weather history database for the weather conditions in past years. The results will help you decide how hot, cold, wet, or windy it might be!

Date:

Astronomy

Oct. 05, 2013 Rise Set
Actual Time 8:47 AM AKDT 7:56 PM AKDT
Civil Twilight 8:09 AM AKDT 8:34 PM AKDT
Nautical Twilight 7:25 AM AKDT 9:19 PM AKDT
Astronomical Twilight 6:39 AM AKDT 10:04 PM AKDT
Moon 9:56 AM AKDT (10/5) 8:01 PM AKDT (10/5)
Length of Visible Light 12h 25m
Length of Day
11h 09m
New Moon, 1% of the Moon is Illuminated
Oct 5
New Moon
Oct 11
First Quarter
Oct 18
Full
Oct 26
Last Quarter
Nov 3
New

Hourly Weather History & Observations

Time (AKDT) Temp. Windchill Dew Point Humidity Pressure Visibility Wind Dir Wind Speed Gust Speed Precip Events Conditions
12:16 AM 39.2 °F 33.0 °F 28.4 °F 65% 29.91 in 10.0 mi WSW 9.2 mph - N/A   Overcast
12:36 AM 39.2 °F 32.0 °F 30.2 °F 70% 29.92 in 10.0 mi SW 11.5 mph - N/A   Overcast
12:56 AM 39.2 °F 33.0 °F 28.4 °F 65% 29.91 in 10.0 mi West 9.2 mph - N/A   Overcast
1:16 AM 39.2 °F 33.0 °F 30.2 °F 70% 29.90 in 10.0 mi South 9.2 mph - N/A   Overcast
1:36 AM 37.4 °F 30.3 °F 30.2 °F 75% 29.90 in 10.0 mi SSW 10.4 mph - N/A   Overcast
1:56 AM 37.4 °F 31.4 °F 30.2 °F 75% 29.90 in 10.0 mi SSW 8.1 mph - N/A   Overcast
2:16 AM 37.4 °F 32.1 °F 30.2 °F 75% 29.90 in 10.0 mi South 6.9 mph - N/A   Overcast
2:36 AM 37.4 °F 32.1 °F 30.2 °F 75% 29.89 in 10.0 mi SSE 6.9 mph - N/A   Overcast
2:56 AM 37.4 °F 30.8 °F 30.2 °F 75% 29.88 in 10.0 mi South 9.2 mph - N/A   Overcast
3:16 AM 37.4 °F 32.1 °F 30.2 °F 75% 29.88 in 10.0 mi South 6.9 mph - N/A   Overcast
3:36 AM 37.4 °F 31.4 °F 30.2 °F 75% 29.86 in 10.0 mi SSE 8.1 mph - N/A   Overcast
3:56 AM 37.4 °F 31.4 °F 30.2 °F 75% 29.86 in 10.0 mi SSE 8.1 mph - N/A   Overcast
4:16 AM 37.4 °F 31.4 °F 30.2 °F 75% 29.84 in 10.0 mi SSE 8.1 mph - N/A   Overcast
4:36 AM 37.4 °F 31.4 °F 28.4 °F 70% 29.83 in 10.0 mi SSE 8.1 mph - N/A   Overcast
4:56 AM 35.6 °F 29.2 °F 28.4 °F 75% 29.83 in 10.0 mi South 8.1 mph - N/A   Mostly Cloudy
5:16 AM 35.6 °F 29.2 °F 28.4 °F 75% 29.82 in 10.0 mi South 8.1 mph - N/A   Mostly Cloudy
5:36 AM 35.6 °F 28.6 °F 28.4 °F 75% 29.82 in 10.0 mi SSE 9.2 mph - N/A   Overcast
5:56 AM 35.6 °F 28.6 °F 28.4 °F 75% 29.80 in 10.0 mi SSE 9.2 mph - N/A   Overcast
6:16 AM 35.6 °F 29.2 °F 28.4 °F 75% 29.79 in 10.0 mi SSE 8.1 mph - N/A   Overcast
6:36 AM 35.6 °F 28.6 °F 28.4 °F 75% 29.77 in 10.0 mi SSE 9.2 mph - N/A   Overcast
6:56 AM 37.4 °F 30.8 °F 28.4 °F 70% 29.75 in 10.0 mi SSE 9.2 mph - N/A   Overcast
7:16 AM 37.4 °F 31.4 °F 28.4 °F 70% 29.76 in 10.0 mi South 8.1 mph - N/A   Overcast
7:36 AM 37.4 °F 30.8 °F 28.4 °F 70% 29.74 in 10.0 mi South 9.2 mph - N/A   Overcast
7:56 AM 37.4 °F 32.1 °F 28.4 °F 70% 29.72 in 10.0 mi SSE 6.9 mph - N/A   Overcast
8:16 AM 37.4 °F 32.8 °F 28.4 °F 70% 29.71 in 10.0 mi SSE 5.8 mph - N/A   Overcast
8:36 AM 37.4 °F - 28.4 °F 70% 29.70 in 10.0 mi Calm Calm - N/A   Overcast
8:56 AM 37.4 °F 33.8 °F 28.4 °F 70% 29.69 in 10.0 mi East 4.6 mph - N/A   Overcast
9:16 AM 37.4 °F 32.8 °F 28.4 °F 70% 29.68 in 10.0 mi NE 5.8 mph - N/A   Overcast
9:36 AM 39.2 °F 37.0 °F 28.4 °F 65% 29.67 in 10.0 mi East 3.5 mph - N/A   Mostly Cloudy
9:56 AM 41.0 °F 39.0 °F 30.2 °F 65% 29.66 in 10.0 mi ENE 3.5 mph - N/A   Overcast
10:16 AM 41.0 °F 38.0 °F 30.2 °F 65% 29.66 in 10.0 mi East 4.6 mph - N/A   Overcast
10:36 AM 41.0 °F 38.0 °F 32.0 °F 70% 29.66 in 10.0 mi East 4.6 mph - N/A   Overcast
10:56 AM 42.8 °F 37.5 °F 33.8 °F 70% 29.64 in 10.0 mi SE 9.2 mph - N/A   Overcast
11:16 AM 44.6 °F 38.4 °F 35.6 °F 71% 29.63 in 10.0 mi SE 12.7 mph - N/A   Overcast
11:36 AM 44.6 °F 38.4 °F 35.6 °F 71% 29.63 in 10.0 mi SSE 12.7 mph - N/A   Overcast
11:56 AM 44.6 °F 38.4 °F 35.6 °F 71% 29.62 in 10.0 mi SSE 12.7 mph - N/A   Overcast
12:16 PM 44.6 °F 37.4 °F 35.6 °F 71% 29.61 in 10.0 mi South 16.1 mph - N/A   Overcast
12:36 PM 46.4 °F 39.8 °F 35.6 °F 66% 29.61 in 10.0 mi SSE 16.1 mph - N/A   Overcast
12:56 PM 46.4 °F 40.1 °F 33.8 °F 62% 29.61 in 10.0 mi SSE 15.0 mph - N/A   Overcast
1:16 PM 48.2 °F - 37.4 °F 66% 29.60 in 10.0 mi SSE 13.8 mph 18.4 mph N/A   Overcast
1:36 PM 48.2 °F - 37.4 °F 66% 29.60 in 10.0 mi SSE 16.1 mph - N/A   Overcast
1:56 PM 48.2 °F - 37.4 °F 66% 29.59 in 10.0 mi SSE 13.8 mph - N/A   Overcast
2:16 PM 50.0 °F - 37.4 °F 62% 29.60 in 10.0 mi South 13.8 mph - N/A   Overcast
2:36 PM 51.8 °F - 37.4 °F 58% 29.59 in 10.0 mi South 11.5 mph - N/A   Overcast
2:56 PM 48.2 °F - 39.2 °F 71% 29.62 in 3.0 mi SW 17.3 mph 24.2 mph N/A   Overcast
3:16 PM 46.4 °F 39.8 °F 37.4 °F 71% 29.63 in 8.0 mi SSW 16.1 mph - N/A   Overcast
3:36 PM 46.4 °F 41.5 °F 39.2 °F 76% 29.63 in 7.0 mi SSW 10.4 mph - N/A   Mostly Cloudy
3:56 PM 46.4 °F 41.1 °F 39.2 °F 76% 29.63 in 10.0 mi SSW 11.5 mph - N/A   Mostly Cloudy
4:16 PM 46.4 °F 41.1 °F 39.2 °F 76% 29.63 in 10.0 mi SSW 11.5 mph - N/A   Mostly Cloudy
4:36 PM 46.4 °F 41.5 °F 39.2 °F 76% 29.63 in 10.0 mi SW 10.4 mph - N/A   Overcast
4:56 PM 46.4 °F 41.5 °F 41.0 °F 81% 29.62 in 5.0 mi SW 10.4 mph - N/A   Overcast
5:16 PM 46.4 °F 42.4 °F 39.2 °F 76% 29.62 in 5.0 mi SW 8.1 mph - N/A   Overcast
5:36 PM 48.2 °F - 42.8 °F 82% 29.62 in 6.0 mi WSW 11.5 mph 18.4 mph N/A   Overcast
5:56 PM 46.4 °F 40.4 °F 42.8 °F 87% 29.62 in 7.0 mi WSW 13.8 mph - N/A   Mostly Cloudy
6:16 PM 46.4 °F 40.1 °F 39.2 °F 76% 29.63 in 9.0 mi WSW 15.0 mph 21.9 mph N/A   Mostly Cloudy
6:36 PM 46.4 °F 41.1 °F 39.2 °F 76% 29.63 in 7.0 mi WSW 11.5 mph - N/A   Mostly Cloudy
6:56 PM 46.4 °F 39.5 °F 39.2 °F 76% 29.63 in 7.0 mi WSW 17.3 mph - N/A   Overcast
7:16 PM 46.4 °F 40.7 °F 37.4 °F 71% 29.64 in 8.0 mi WSW 12.7 mph - N/A   Overcast
7:36 PM 46.4 °F 40.4 °F 37.4 °F 71% 29.65 in 8.0 mi WSW 13.8 mph - N/A   Overcast
7:56 PM 46.4 °F 40.1 °F 37.4 °F 71% 29.65 in 7.0 mi WSW 15.0 mph 20.7 mph N/A   Overcast
8:16 PM 44.6 °F 38.1 °F 37.4 °F 76% 29.65 in 7.0 mi WSW 13.8 mph - N/A   Overcast
8:36 PM 46.4 °F 40.7 °F 39.2 °F 76% 29.66 in 8.0 mi WSW 12.7 mph - N/A   Overcast
8:56 PM 46.4 °F 40.4 °F 39.2 °F 76% 29.67 in 8.0 mi WSW 13.8 mph - N/A   Overcast
9:16 PM 44.6 °F 37.4 °F 39.2 °F 81% 29.67 in 8.0 mi WSW 16.1 mph - N/A   Overcast
9:36 PM 44.6 °F 37.2 °F 39.2 °F 81% 29.69 in 7.0 mi West 17.3 mph 23.0 mph N/A   Overcast
9:56 PM 44.6 °F 37.2 °F 37.4 °F 76% 29.70 in 10.0 mi West 17.3 mph - N/A   Overcast
10:16 PM 44.6 °F 36.4 °F 37.4 °F 76% 29.71 in 10.0 mi West 20.7 mph 26.5 mph N/A   Overcast
10:36 PM 44.6 °F 36.9 °F 37.4 °F 76% 29.72 in 7.0 mi West 18.4 mph - N/A   Overcast
10:56 PM 44.6 °F 36.6 °F 37.4 °F 76% 29.73 in 7.0 mi West 19.6 mph 24.2 mph N/A   Overcast
11:16 PM 44.6 °F 37.2 °F 37.4 °F 76% 29.74 in 8.0 mi West 17.3 mph 23.0 mph N/A   Overcast
11:36 PM 44.6 °F 36.9 °F 37.4 °F 76% 29.75 in 8.0 mi West 18.4 mph 21.9 mph N/A   Overcast
11:56 PM 44.6 °F 37.2 °F 37.4 °F 76% 29.75 in 8.0 mi West 17.3 mph 23.0 mph N/A   Overcast